,,,PA_Meas_PMT16A,,PR_Meas_QMR101_102,,RH_Meas_QMH101,,SR_Meas_QMS101,,TA_Meas_QMH101,,GenWind,,GenWind,
date,time,status,PA,status,PR,status,RH,status,SR,status,TA,status,DirAvg,status,SpdAvg,
2009-12-25, 00:00:04,VALID,1002.82,VALID,0,VALID,87.9534,VALID,0,VALID,25.5941,VALID,19,VALID,0.9375,
2009-12-25, 00:01:04,VALID,1002.85,VALID,0,VALID,87.7398,VALID,0,VALID,25.5337,VALID,19,VALID,1.84961,
2009-12-25, 00:02:04,VALID,1002.85,VALID,0,VALID,87.6024,VALID,0,VALID,25.5532,VALID,34,VALID,1.44375,
2009-12-25, 00:03:04,VALID,1002.88,VALID,0,VALID,87.0684,VALID,0,VALID,25.6311,VALID,24,VALID,2.53359,
2009-12-25, 00:04:04,VALID,1002.86,VALID,0,VALID,86.9158,VALID,0,VALID,25.67,VALID,22,VALID,1.66211,
2009-12-25, 00:05:04,VALID,1002.86,VALID,0,VALID,86.9769,VALID,0,VALID,25.67,VALID,23,VALID,1.575,
2009-12-25, 00:06:04,VALID,1002.86,VALID,0,VALID,86.8624,VALID,0,VALID,25.67,VALID,17,VALID,1.2668,
2009-12-25, 00:07:04,VALID,1002.88,VALID,0,VALID,87.1676,VALID,0,VALID,25.6506,VALID,33,VALID,1.07773,
2009-12-25, 00:08:04,VALID,1002.88,VALID,0,VALID,86.9235,VALID,0,VALID,25.6116,VALID,33,VALID,1.82656,
2009-12-25, 00:09:04,VALID,1002.92,VALID,0,VALID,87.1142,VALID,0,VALID,25.6116,VALID,20,VALID,1.42539,
2009-12-25, 00:10:04,VALID,1002.93,VALID,0,VALID,87.2591,VALID,0,VALID,25.5921,VALID,40,VALID,1.1082,
2009-12-25, 00:11:04,VALID,1002.95,VALID,0,VALID,87.3736,VALID,0,VALID,25.5532,VALID,24,VALID,2.00586,
2009-12-25, 00:12:04,VALID,1002.99,VALID,0,VALID,87.4727,VALID,0,VALID,25.5318,VALID,34,VALID,1.33633,
2009-12-25, 00:13:04,VALID,1002.97,VALID,0,VALID,87.1447,VALID,0,VALID,25.5532,VALID,31,VALID,1.65781,
2009-12-25, 00:14:04,VALID,1002.95,VALID,0,VALID,86.9998,VALID,0,VALID,25.5513,VALID,17,VALID,1.45,
2009-12-25, 00:15:04,VALID,1002.96,VALID,0,VALID,86.8624,VALID,0,VALID,25.5707,VALID,23,VALID,1.48281,
2009-12-25, 00:16:04,VALID,1002.93,VALID,0,VALID,86.7861,VALID,0,VALID,25.6506,VALID,38,VALID,1.23164,
2009-12-25, 00:17:04,VALID,1002.9,VALID,0,VALID,86.4734,VALID,0,VALID,25.709,VALID,21,VALID,1.75117,
2009-12-25, 00:18:04,VALID,1002.86,VALID,0,VALID,86.3742,VALID,0,VALID,25.7285,VALID,17,VALID,1.70781,
2009-12-25, 00:19:04,VALID,1002.8,VALID,0,VALID,86.069,VALID,0,VALID,25.7285,VALID,9,VALID,1.69727,
2009-12-25, 00:20:04,VALID,1002.76,VALID,0,VALID,86.0767,VALID,0,VALID,25.7265,VALID,26,VALID,1.91367,
2009-12-25, 00:21:04,VALID,1002.72,VALID,0,VALID,86.0919,VALID,0,VALID,25.746,VALID,27,VALID,1.5793,
2009-12-25, 00:22:04,VALID,1002.66,VALID,0,VALID,86.0995,VALID,0,VALID,25.7285,VALID,29,VALID,1.58047,
2009-12-25, 00:23:04,VALID,1002.61,VALID,0,VALID,85.8554,VALID,0,VALID,25.748,VALID,37,VALID,1.86094,
2009-12-25, 00:24:04,VALID,1002.59,VALID,0,VALID,85.8096,VALID,0,VALID,25.748,VALID,20,VALID,1.16484,
2009-12-25, 00:25:04,VALID,1002.54,VALID,0,VALID,85.8936,VALID,0,VALID,25.748,VALID,29,VALID,1.38945,
2009-12-25, 00:26:04,VALID,1002.53,VALID,0,VALID,86.1301,VALID,0,VALID,25.7304,VALID,60,VALID,0.905469,
2009-12-25, 00:27:04,VALID,1002.48,VALID,0,VALID,85.9241,VALID,0,VALID,25.6895,VALID,18,VALID,1.55703,
2009-12-25, 00:28:04,VALID,1002.42,VALID,0,VALID,86.4734,VALID,0,VALID,25.6506,VALID,27,VALID,1.17188,
2009-12-25, 00:29:04,VALID,1002.43,VALID,0,VALID,86.4734,VALID,0,VALID,25.6116,VALID,21,VALID,1.59883,
2009-12-25, 00:30:04,VALID,1002.38,VALID,0,VALID,86.7022,VALID,0,VALID,25.5727,VALID,27,VALID,1.42656,
2009-12-25, 00:31:04,VALID,1002.35,VALID,0,VALID,86.9692,VALID,0,VALID,25.5532,VALID,27,VALID,1.30859,
2009-12-25, 00:32:04,VALID,1002.31,VALID,0,VALID,87.0913,VALID,0,VALID,25.5142,VALID,32,VALID,1.49258,
2009-12-25, 00:33:04,VALID,1002.29,VALID,0,VALID,87.2668,VALID,0,VALID,25.4948,VALID,26,VALID,0.80625,
2009-12-25, 00:34:04,VALID,1002.28,VALID,0,VALID,87.4651,VALID,0,VALID,25.4558,VALID,16,VALID,0.835938,
2009-12-25, 00:35:04,VALID,1002.27,VALID,0,VALID,87.488,VALID,0,VALID,25.4169,VALID,21,VALID,0.941016,
2009-12-25, 00:36:04,VALID,1002.25,VALID,0,VALID,87.3583,VALID,0,VALID,25.3955,VALID,21,VALID,1.23555,
2009-12-25, 00:37:04,VALID,1002.23,VALID,0,VALID,87.076,VALID,0,VALID,25.4558,VALID,21,VALID,0.9375,
2009-12-25, 00:38:04,VALID,1002.23,VALID,0,VALID,86.8853,VALID,0,VALID,25.4558,VALID,22,VALID,1.43203,
2009-12-25, 00:39:04,VALID,1002.24,VALID,0,VALID,87.1447,VALID,0,VALID,25.4753,VALID,7,VALID,0.996094,
2009-12-25, 00:40:04,VALID,1002.22,VALID,0,VALID,86.8624,VALID,0,VALID,25.4558,VALID,10,VALID,1.92461,
2009-12-25, 00:41:04,VALID,1002.23,VALID,0,VALID,86.6793,VALID,0,VALID,25.4928,VALID,33,VALID,1.08398,
2009-12-25, 00:42:04,VALID,1002.24,VALID,0,VALID,86.5954,VALID,0,VALID,25.5337,VALID,16,VALID,1.11641,
2009-12-25, 00:43:04,VALID,1002.22,VALID,0,VALID,86.5878,VALID,0,VALID,25.5532,VALID,23,VALID,1.07617,
2009-12-25, 00:44:04,VALID,1002.21,VALID,0,VALID,86.3284,VALID,0,VALID,25.5337,VALID,25,VALID,2.50742,
2009-12-25, 00:45:04,VALID,1002.2,VALID,0,VALID,85.8096,VALID,0,VALID,25.5902,VALID,4,VALID,2.17188,
2009-12-25, 00:46:04,VALID,1002.21,VALID,0,VALID,85.4892,VALID,0,VALID,25.67,VALID,25,VALID,1.70586,
2009-12-25, 00:47:04,VALID,1002.16,VALID,0,VALID,84.9857,VALID,0,VALID,25.709,VALID,26,VALID,3.43008,
2009-12-25, 00:48:04,VALID,1002.14,VALID,0,VALID,84.7797,VALID,0.100563,VALID,25.7674,VALID,15,VALID,2.23516,
2009-12-25, 00:49:04,VALID,1002.16,VALID,0,VALID,84.6043,VALID,0,VALID,25.785,VALID,38,VALID,2.33984,
2009-12-25, 00:50:04,VALID,1002.15,VALID,0,VALID,84.6348,VALID,0.100563,VALID,25.8044,VALID,2,VALID,1.84883,
2009-12-25, 00:51:04,VALID,1002.12,VALID,0,VALID,84.9171,VALID,0,VALID,25.8064,VALID,48,VALID,1.29102,
2009-12-25, 00:52:04,VALID,1002.13,VALID,0,VALID,85.0849,VALID,0,VALID,25.7655,VALID,9,VALID,1.88164,
2009-12-25, 00:53:04,VALID,1002.12,VALID,0,VALID,85.2833,VALID,0,VALID,25.7285,VALID,13,VALID,1.62656,
2009-12-25, 00:54:04,VALID,1002.14,VALID,0,VALID,85.3748,VALID,0,VALID,25.7265,VALID,33,VALID,1.99531,
2009-12-25, 00:55:04,VALID,1002.15,VALID,0,VALID,85.6571,VALID,0,VALID,25.709,VALID,20,VALID,1.51719,
2009-12-25, 00:56:04,VALID,1002.15,VALID,0,VALID,85.9546,VALID,0,VALID,25.6486,VALID,12,VALID,1.77266,
2009-12-25, 00:57:04,VALID,1002.16,VALID,0,VALID,85.8325,VALID,0,VALID,25.67,VALID,38,VALID,1.69609,
2009-12-25, 00:58:04,VALID,1002.16,VALID,0,VALID,86.0614,VALID,0,VALID,25.67,VALID,19,VALID,1.79375,
2009-12-25, 00:59:04,VALID,1002.13,VALID,0,VALID,86.3894,VALID,0,VALID,25.6116,VALID,13,VALID,1.37969,
2009-12-25, 01:00:04,VALID,1002.11,VALID,0,VALID,86.4657,VALID,0,VALID,25.5921,VALID,26,VALID,1.9168,
2009-12-25, 01:01:04,VALID,1002.12,VALID,0,VALID,86.6412,VALID,0,VALID,25.5727,VALID,9,VALID,1.5668,
2009-12-25, 01:02:04,VALID,1002.06,VALID,0,VALID,86.5649,VALID,0,VALID,25.5123,VALID,21,VALID,1.84844,
2009-12-25, 01:03:04,VALID,1002.05,VALID,0,VALID,86.6183,VALID,0,VALID,25.5337,VALID,4,VALID,1.40195,
2009-12-25, 01:04:04,VALID,1002.01,VALID,0,VALID,86.7099,VALID,0,VALID,25.5123,VALID,31,VALID,1.40508,
2009-12-25, 01:05:04,VALID,1002,VALID,0,VALID,86.7633,VALID,0,VALID,25.4948,VALID,22,VALID,1.44375,
2009-12-25, 01:06:04,VALID,1001.97,VALID,0,VALID,87.0226,VALID,0,VALID,25.4753,VALID,8,VALID,1.86914,
2009-12-25, 01:07:04,VALID,1001.98,VALID,0,VALID,87.0455,VALID,0,VALID,25.4539,VALID,26,VALID,1.4625,
2009-12-25, 01:08:04,VALID,1001.98,VALID,0,VALID,87.0379,VALID,0,VALID,25.4948,VALID,359,VALID,1.375,
2009-12-25, 01:09:04,VALID,1001.96,VALID,0,VALID,86.9311,VALID,0,VALID,25.4928,VALID,24,VALID,1.63672,
2009-12-25, 01:10:04,VALID,1002,VALID,0,VALID,86.8167,VALID,0,VALID,25.4928,VALID,15,VALID,2.22969,
2009-12-25, 01:11:04,VALID,1002,VALID,0,VALID,86.9998,VALID,0,VALID,25.5142,VALID,28,VALID,1.40469,
2009-12-25, 01:12:04,VALID,1001.96,VALID,0,VALID,86.9616,VALID,0,VALID,25.5513,VALID,28,VALID,2.14648,
2009-12-25, 01:13:04,VALID,1001.93,VALID,0,VALID,86.8929,VALID,0,VALID,25.5727,VALID,16,VALID,2.29922,
2009-12-25, 01:14:04,VALID,1001.91,VALID,0,VALID,87.0226,VALID,0,VALID,25.5727,VALID,14,VALID,1.60039,
2009-12-25, 01:15:05,VALID,1001.89,VALID,0,VALID,87.1981,VALID,0,VALID,25.5513,VALID,12,VALID,1.38789,
2009-12-25, 01:16:05,VALID,1001.86,VALID,0,VALID,87.2515,VALID,0,VALID,25.5337,VALID,18,VALID,1.84687,
2009-12-25, 01:17:05,VALID,1001.77,VALID,0,VALID,87.6406,VALID,0,VALID,25.5337,VALID,36,VALID,1.55547,
2009-12-25, 01:18:05,VALID,1001.74,VALID,0,VALID,87.6024,VALID,0,VALID,25.5123,VALID,19,VALID,1.47578,
2009-12-25, 01:19:05,VALID,1001.67,VALID,0,VALID,87.6863,VALID,0,VALID,25.5123,VALID,16,VALID,1.38398,
2009-12-25, 01:20:05,VALID,1001.66,VALID,0,VALID,87.9915,VALID,0,VALID,25.5337,VALID,11,VALID,2.26836,
2009-12-25, 01:21:05,VALID,1001.61,VALID,0,VALID,87.7703,VALID,0,VALID,25.4928,VALID,31,VALID,2.17344,
2009-12-25, 01:22:05,VALID,1001.59,VALID,0,VALID,88.0144,VALID,0,VALID,25.5532,VALID,13,VALID,1.54297,
2009-12-25, 01:23:05,VALID,1001.62,VALID,0,VALID,87.9762,VALID,0,VALID,25.5337,VALID,18,VALID,2.03203,
2009-12-25, 01:24:05,VALID,1001.6,VALID,0,VALID,88.1517,VALID,0,VALID,25.5123,VALID,12,VALID,2.14883,
2009-12-25, 01:25:05,VALID,1001.63,VALID,0,VALID,88.2433,VALID,0,VALID,25.5337,VALID,359,VALID,1.03828,
2009-12-25, 01:26:05,VALID,1001.57,VALID,0,VALID,88.167,VALID,0,VALID,25.5551,VALID,37,VALID,1.47109,
2009-12-25, 01:27:05,VALID,1001.6,VALID,0,VALID,88.2051,VALID,0,VALID,25.5142,VALID,36,VALID,1.93281,
2009-12-25, 01:28:05,VALID,1001.58,VALID,0,VALID,88.3272,VALID,0,VALID,25.4734,VALID,14,VALID,1.79805,
2009-12-25, 01:29:05,VALID,1001.56,VALID,0,VALID,88.5026,VALID,0,VALID,25.5142,VALID,25,VALID,3.30898,
2009-12-25, 01:30:05,VALID,1001.53,VALID,0,VALID,88.3577,VALID,0,VALID,25.5142,VALID,36,VALID,1.64688,
2009-12-25, 01:31:05,VALID,1001.5,VALID,0,VALID,88.5332,VALID,0,VALID,25.4928,VALID,30,VALID,1.70352,
2009-12-25, 01:32:05,VALID,1001.49,VALID,0,VALID,88.5408,VALID,0,VALID,25.4948,VALID,23,VALID,1.80469,
2009-12-25, 01:33:05,VALID,1001.44,VALID,0,VALID,88.7468,VALID,0,VALID,25.4753,VALID,15,VALID,2.3707,
2009-12-25, 01:34:05,VALID,1001.44,VALID,0,VALID,88.8765,VALID,0,VALID,25.5142,VALID,18,VALID,2.59297,
2009-12-25, 01:35:05,VALID,1001.41,VALID,0,VALID,88.8765,VALID,0,VALID,25.4928,VALID,4,VALID,2.06094,
2009-12-25, 01:36:05,VALID,1001.42,VALID,0,VALID,88.8231,VALID,0,VALID,25.5337,VALID,8,VALID,1.77344,
2009-12-25, 01:37:05,VALID,1001.36,VALID,0,VALID,88.9375,VALID,0,VALID,25.5142,VALID,16,VALID,1.64102,
2009-12-25, 01:38:05,VALID,1001.31,VALID,0,VALID,89.0214,VALID,0,VALID,25.5142,VALID,6,VALID,1.73789,
2009-12-25, 01:39:05,VALID,1001.29,VALID,0,VALID,89.0443,VALID,0,VALID,25.4948,VALID,21,VALID,1.57344,
2009-12-25, 01:40:05,VALID,1001.23,VALID,0,VALID,89.0519,VALID,0,VALID,25.4948,VALID,358,VALID,1.32969,
2009-12-25, 01:41:05,VALID,1001.2,VALID,0,VALID,89.1435,VALID,0,VALID,25.4753,VALID,15,VALID,2.4375,
2009-12-25, 01:42:05,VALID,1001.15,VALID,0,VALID,89.0519,VALID,0,VALID,25.4753,VALID,10,VALID,1.30703,
2009-12-25, 01:43:05,VALID,1001.1,VALID,0,VALID,89.1282,VALID,0,VALID,25.4753,VALID,26,VALID,2.01328,
2009-12-25, 01:44:05,VALID,1001.08,VALID,0,VALID,89.235,VALID,0,VALID,25.4558,VALID,31,VALID,2.46992,
2009-12-25, 01:45:05,VALID,1001.05,VALID,0,VALID,89.0901,VALID,0,VALID,25.4928,VALID,18,VALID,1.98281,
2009-12-25, 01:46:05,VALID,1001.01,VALID,0,VALID,88.9527,VALID,0,VALID,25.5357,VALID,29,VALID,1.49844,
2009-12-25, 01:47:05,VALID,1000.96,VALID,0,VALID,88.9375,VALID,0,VALID,25.5142,VALID,19,VALID,1.60352,
2009-12-25, 01:48:05,VALID,1000.95,VALID,0,VALID,88.9222,VALID,0,VALID,25.5142,VALID,348,VALID,1.4875,
2009-12-25, 01:49:05,VALID,1000.9,VALID,0,VALID,89.0443,VALID,0,VALID,25.4948,VALID,29,VALID,1.26445,
2009-12-25, 01:50:05,VALID,1000.88,VALID,0,VALID,89.0214,VALID,0,VALID,25.4539,VALID,21,VALID,1.63633,
2009-12-25, 01:51:05,VALID,1000.83,VALID,0,VALID,89.0138,VALID,0.100563,VALID,25.4753,VALID,32,VALID,1.76992,
2009-12-25, 01:52:05,VALID,1000.81,VALID,0,VALID,89.0595,VALID,0,VALID,25.4753,VALID,5,VALID,1.94219,
2009-12-25, 01:53:05,VALID,1000.76,VALID,0,VALID,89.029,VALID,0,VALID,25.4967,VALID,24,VALID,3.2293,
2009-12-25, 01:54:05,VALID,1000.75,VALID,0,VALID,88.7162,VALID,0,VALID,25.5337,VALID,32,VALID,1.05156,
2009-12-25, 01:55:05,VALID,1000.75,VALID,0,VALID,88.64,VALID,0,VALID,25.5337,VALID,16,VALID,1.84102,
2009-12-25, 01:56:05,VALID,1000.73,VALID,0,VALID,88.7773,VALID,0,VALID,25.5142,VALID,23,VALID,2.38672,
2009-12-25, 01:57:05,VALID,1000.68,VALID,0,VALID,88.8154,VALID,0,VALID,25.5142,VALID,27,VALID,2.48203,
2009-12-25, 01:58:05,VALID,1000.69,VALID,0,VALID,88.8307,VALID,0,VALID,25.5337,VALID,21,VALID,2.10156,
2009-12-25, 01:59:05,VALID,1000.67,VALID,0,VALID,88.762,VALID,0,VALID,25.5318,VALID,25,VALID,1.87227,
2009-12-25, 02:00:05,VALID,1000.64,VALID,0,VALID,88.7239,VALID,0,VALID,25.5532,VALID,30,VALID,2.49961,
2009-12-25, 02:01:05,VALID,1000.61,VALID,0,VALID,88.7315,VALID,0,VALID,25.5921,VALID,25,VALID,2.52344,
2009-12-25, 02:02:05,VALID,1000.62,VALID,0,VALID,88.6476,VALID,0,VALID,25.6525,VALID,17,VALID,2.33906,
2009-12-25, 02:03:05,VALID,1000.6,VALID,0,VALID,88.64,VALID,0,VALID,25.6506,VALID,30,VALID,3.1668,
2009-12-25, 02:04:05,VALID,1000.58,VALID,0,VALID,88.4416,VALID,0,VALID,25.709,VALID,24,VALID,3.32969,
2009-12-25, 02:05:05,VALID,1000.62,VALID,0,VALID,88.3729,VALID,0,VALID,25.6681,VALID,18,VALID,1.92344,
2009-12-25, 02:06:05,VALID,1000.64,VALID,0,VALID,88.5255,VALID,0,VALID,25.6486,VALID,25,VALID,1.39805,
2009-12-25, 02:07:05,VALID,1000.66,VALID,0,VALID,88.7849,VALID,0,VALID,25.6311,VALID,12,VALID,2.36016,
2009-12-25, 02:08:05,VALID,1000.76,VALID,0,VALID,88.8536,VALID,0,VALID,25.6311,VALID,10,VALID,2.27148,
2009-12-25, 02:09:05,VALID,1000.83,VALID,0,VALID,88.9451,VALID,0,VALID,25.633,VALID,20,VALID,1.56523,
2009-12-25, 02:10:05,VALID,1000.85,VALID,0,VALID,89.0748,VALID,0,VALID,25.6136,VALID,360,VALID,1.28359,
2009-12-25, 02:11:05,VALID,1000.89,VALID,0,VALID,89.2121,VALID,0,VALID,25.5318,VALID,15,VALID,1.23203,
2009-12-25, 02:12:05,VALID,1000.92,VALID,0,VALID,89.3952,VALID,0,VALID,25.5532,VALID,15,VALID,1.64805,
2009-12-25, 02:13:05,VALID,1000.95,VALID,0,VALID,89.4181,VALID,0,VALID,25.5337,VALID,23,VALID,1.24883,
2009-12-25, 02:14:05,VALID,1000.99,VALID,0,VALID,89.5478,VALID,0,VALID,25.5337,VALID,22,VALID,1.72031,
2009-12-25, 02:15:05,VALID,1000.99,VALID,0,VALID,89.7461,VALID,0,VALID,25.5337,VALID,359,VALID,2.47969,
2009-12-25, 02:16:05,VALID,1000.95,VALID,0,VALID,89.7538,VALID,0,VALID,25.5532,VALID,19,VALID,2.13555,
2009-12-25, 02:17:05,VALID,1000.96,VALID,0,VALID,89.6775,VALID,0,VALID,25.5337,VALID,22,VALID,1.40156,
2009-12-25, 02:18:05,VALID,1000.97,VALID,0,VALID,89.8148,VALID,0,VALID,25.5337,VALID,18,VALID,1.27813,
2009-12-25, 02:19:05,VALID,1000.95,VALID,0,VALID,89.9521,VALID,0,VALID,25.5142,VALID,9,VALID,1.50039,
2009-12-25, 02:20:05,VALID,1000.94,VALID,0,VALID,89.9979,VALID,0,VALID,25.4948,VALID,21,VALID,1.26055,
2009-12-25, 02:21:05,VALID,1000.97,VALID,0,VALID,90.0437,VALID,0,VALID,25.4948,VALID,13,VALID,1.7375,
2009-12-25, 02:22:05,VALID,1000.95,VALID,0,VALID,90.1352,VALID,0,VALID,25.4753,VALID,24,VALID,1.51641,
2009-12-25, 02:23:05,VALID,1000.98,VALID,0,VALID,90.1963,VALID,0,VALID,25.4558,VALID,16,VALID,1.85156,
2009-12-25, 02:24:05,VALID,1000.96,VALID,0,VALID,90.3107,VALID,0,VALID,25.4772,VALID,10,VALID,1.82734,
2009-12-25, 02:25:05,VALID,1000.98,VALID,0,VALID,90.2497,VALID,0,VALID,25.4558,VALID,346,VALID,1.3293,
2009-12-25, 02:26:05,VALID,1000.96,VALID,0,VALID,90.2344,VALID,0,VALID,25.4753,VALID,354,VALID,1.20508,
2009-12-25, 02:27:05,VALID,1000.96,VALID,0,VALID,90.2573,VALID,0,VALID,25.4363,VALID,357,VALID,1.53516,
2009-12-25, 02:28:05,VALID,1000.96,VALID,0,VALID,90.3717,VALID,0,VALID,25.376,VALID,22,VALID,1.25039,
2009-12-25, 02:29:05,VALID,1000.92,VALID,0,VALID,90.5701,VALID,0,VALID,25.4149,VALID,10,VALID,1.96758,
2009-12-25, 02:30:05,VALID,1000.91,VALID,0,VALID,90.4862,VALID,0,VALID,25.4558,VALID,10,VALID,1.73867,
2009-12-25, 02:31:05,VALID,1000.93,VALID,0,VALID,90.4709,VALID,0.100563,VALID,25.4558,VALID,11,VALID,0.994141,
2009-12-25, 02:32:05,VALID,1000.94,VALID,0,VALID,90.5243,VALID,0.100563,VALID,25.4753,VALID,20,VALID,1.08945,
2009-12-25, 02:33:05,VALID,1000.95,VALID,0,VALID,90.5853,VALID,0,VALID,25.4734,VALID,23,VALID,1.89453,
2009-12-25, 02:34:05,VALID,1001,VALID,0,VALID,90.4862,VALID,0.100563,VALID,25.5318,VALID,37,VALID,2.53359,
2009-12-25, 02:35:05,VALID,1001.03,VALID,0,VALID,90.3107,VALID,0.100563,VALID,25.5707,VALID,3,VALID,1.25859,
2009-12-25, 02:36:05,VALID,1001.02,VALID,0,VALID,90.2115,VALID,0.100563,VALID,25.5707,VALID,355,VALID,1.36719,
2009-12-25, 02:37:05,VALID,1001.03,VALID,0,VALID,90.2191,VALID,0,VALID,25.5707,VALID,14,VALID,1.3332,
2009-12-25, 02:38:05,VALID,1001.02,VALID,0,VALID,90.1963,VALID,0,VALID,25.5513,VALID,17,VALID,1.42656,
2009-12-25, 02:39:05,VALID,1001,VALID,0,VALID,90.1123,VALID,0,VALID,25.5921,VALID,13,VALID,1.29883,
2009-12-25, 02:40:05,VALID,1001.03,VALID,0,VALID,89.7461,VALID,0.100563,VALID,25.5902,VALID,21,VALID,3.8332,
2009-12-25, 02:41:05,VALID,1000.99,VALID,0,VALID,89.4181,VALID,0,VALID,25.67,VALID,34,VALID,2.39023,
2009-12-25, 02:42:05,VALID,1001.02,VALID,0,VALID,89.2274,VALID,0,VALID,25.6895,VALID,357,VALID,1.8082,
2009-12-25, 02:43:05,VALID,1001.03,VALID,0,VALID,88.8841,VALID,0,VALID,25.6895,VALID,7,VALID,3.17969,
2009-12-25, 02:44:05,VALID,1001.01,VALID,0,VALID,88.9222,VALID,0,VALID,25.6876,VALID,353,VALID,1.76406,
2009-12-25, 02:45:05,VALID,1001.02,VALID,0,VALID,88.8841,VALID,0,VALID,25.6876,VALID,353,VALID,1.79375,
2009-12-25, 02:46:05,VALID,1001.07,VALID,0,VALID,88.8002,VALID,0.100563,VALID,25.6681,VALID,22,VALID,2.37656,
2009-12-25, 02:47:05,VALID,1001.06,VALID,0,VALID,88.6171,VALID,0.100563,VALID,25.709,VALID,10,VALID,2.10508,
2009-12-25, 02:48:05,VALID,1001.06,VALID,0,VALID,88.6171,VALID,0,VALID,25.6876,VALID,357,VALID,2.1293,
2009-12-25, 02:49:05,VALID,1001.09,VALID,0,VALID,88.6171,VALID,0,VALID,25.6681,VALID,1,VALID,2.01719,
2009-12-25, 02:50:05,VALID,1001.08,VALID,0,VALID,88.7697,VALID,0,VALID,25.6895,VALID,360,VALID,1.68516,
2009-12-25, 02:51:05,VALID,1001.08,VALID,0,VALID,88.6857,VALID,0.100563,VALID,25.6486,VALID,2,VALID,1.62812,
2009-12-25, 02:52:05,VALID,1001.09,VALID,0,VALID,88.8002,VALID,0,VALID,25.6486,VALID,2,VALID,1.58789,
2009-12-25, 02:53:05,VALID,1001.06,VALID,0,VALID,88.7697,VALID,0,VALID,25.6292,VALID,356,VALID,1.16406,
2009-12-25, 02:54:05,VALID,1001.1,VALID,0,VALID,88.8231,VALID,0,VALID,25.6292,VALID,7,VALID,1.32813,
2009-12-25, 02:55:05,VALID,1001.07,VALID,0,VALID,88.8459,VALID,0,VALID,25.6097,VALID,348,VALID,2.0582,
2009-12-25, 02:56:05,VALID,1001.1,VALID,0,VALID,88.8917,VALID,0,VALID,25.6311,VALID,360,VALID,1.28164,
2009-12-25, 02:57:05,VALID,1001.05,VALID,0,VALID,88.8383,VALID,0,VALID,25.6311,VALID,3,VALID,1.63945,
2009-12-25, 02:58:05,VALID,1001.03,VALID,0,VALID,88.762,VALID,0,VALID,25.6311,VALID,22,VALID,1.70898,
2009-12-25, 02:59:05,VALID,1001.04,VALID,0,VALID,88.6094,VALID,0,VALID,25.6311,VALID,342,VALID,1.88789,
2009-12-25, 03:00:05,VALID,1001.02,VALID,0,VALID,88.5713,VALID,0,VALID,25.6506,VALID,358,VALID,2.2625,
2009-12-25, 03:01:05,VALID,1000.98,VALID,0,VALID,88.6247,VALID,0,VALID,25.6486,VALID,4,VALID,1.64609,
2009-12-25, 03:02:05,VALID,1001.02,VALID,0,VALID,88.6705,VALID,0,VALID,25.6506,VALID,352,VALID,0.944922,
2009-12-25, 03:03:05,VALID,1001,VALID,0,VALID,88.7315,VALID,0,VALID,25.6506,VALID,351,VALID,1.12109,
2009-12-25, 03:04:05,VALID,1000.98,VALID,0,VALID,88.8307,VALID,0,VALID,25.6311,VALID,357,VALID,1.92539,
2009-12-25, 03:05:05,VALID,1001,VALID,0,VALID,88.7697,VALID,0.100563,VALID,25.6292,VALID,357,VALID,1.28789,
2009-12-25, 03:06:05,VALID,1000.99,VALID,0,VALID,88.6857,VALID,0,VALID,25.6486,VALID,7,VALID,1.90742,
2009-12-25, 03:07:05,VALID,1000.99,VALID,0,VALID,88.7697,VALID,0,VALID,25.6292,VALID,355,VALID,1.30938,
2009-12-25, 03:08:05,VALID,1000.99,VALID,0,VALID,88.8231,VALID,0,VALID,25.6506,VALID,352,VALID,1.52656,
2009-12-25, 03:09:05,VALID,1001.02,VALID,0,VALID,88.8078,VALID,0,VALID,25.6311,VALID,8,VALID,1.36758,
2009-12-25, 03:10:05,VALID,1001.05,VALID,0,VALID,88.9756,VALID,0,VALID,25.6311,VALID,353,VALID,1.22148,
2009-12-25, 03:11:05,VALID,1001.06,VALID,0,VALID,89.0214,VALID,0,VALID,25.5921,VALID,16,VALID,1.76406,
2009-12-25, 03:12:05,VALID,1001.08,VALID,0,VALID,88.9833,VALID,0,VALID,25.5921,VALID,27,VALID,2.16484,
2009-12-25, 03:13:05,VALID,1001.12,VALID,0,VALID,89.0214,VALID,0,VALID,25.5921,VALID,2,VALID,1.11367,
2009-12-25, 03:14:05,VALID,1001.15,VALID,0,VALID,89.0977,VALID,0.100563,VALID,25.5707,VALID,347,VALID,1.10469,
2009-12-25, 03:15:05,VALID,1001.13,VALID,0,VALID,89.0443,VALID,0,VALID,25.5513,VALID,21,VALID,2.73477,
2009-12-25, 03:16:05,VALID,1001.15,VALID,0,VALID,89.0214,VALID,0,VALID,25.6116,VALID,17,VALID,1.45508,
2009-12-25, 03:17:05,VALID,1001.19,VALID,0,VALID,88.9451,VALID,0,VALID,25.5707,VALID,357,VALID,0.936328,
2009-12-25, 03:18:05,VALID,1001.21,VALID,0,VALID,88.8536,VALID,0,VALID,25.5902,VALID,12,VALID,2.22109,
2009-12-25, 03:19:05,VALID,1001.22,VALID,0,VALID,88.8459,VALID,0,VALID,25.5707,VALID,354,VALID,2.22227,
2009-12-25, 03:20:05,VALID,1001.25,VALID,0,VALID,88.8993,VALID,0.100563,VALID,25.5902,VALID,26,VALID,1.7332,
2009-12-25, 03:21:05,VALID,1001.26,VALID,0,VALID,88.8231,VALID,0,VALID,25.6097,VALID,1,VALID,2.31211,
2009-12-25, 03:22:05,VALID,1001.29,VALID,0,VALID,88.8612,VALID,0,VALID,25.633,VALID,13,VALID,1.30039,
2009-12-25, 03:23:05,VALID,1001.29,VALID,0,VALID,88.8536,VALID,0,VALID,25.5902,VALID,47,VALID,1.76016,
2009-12-25, 03:24:05,VALID,1001.29,VALID,0,VALID,88.8917,VALID,0,VALID,25.6116,VALID,18,VALID,0.863281,
2009-12-25, 03:25:05,VALID,1001.32,VALID,0,VALID,88.9451,VALID,0,VALID,25.6116,VALID,27,VALID,0.725,
2009-12-25, 03:26:05,VALID,1001.31,VALID,0,VALID,89.029,VALID,0.100563,VALID,25.5727,VALID,32,VALID,1.24766,
2009-12-25, 03:27:05,VALID,1001.36,VALID,0,VALID,89.1587,VALID,0,VALID,25.5532,VALID,360,VALID,0.932031,
2009-12-25, 03:28:05,VALID,1001.37,VALID,0,VALID,89.2655,VALID,0,VALID,25.5337,VALID,32,VALID,0.98125,
2009-12-25, 03:29:05,VALID,1001.33,VALID,0,VALID,89.3647,VALID,0,VALID,25.4948,VALID,28,VALID,1.07734,
2009-12-25, 03:30:05,VALID,1001.35,VALID,0,VALID,89.502,VALID,0,VALID,25.4753,VALID,23,VALID,0.839453,
2009-12-25, 03:31:05,VALID,1001.37,VALID,0,VALID,89.6317,VALID,0,VALID,25.4753,VALID,21,VALID,1.40742,
2009-12-25, 03:32:05,VALID,1001.39,VALID,0,VALID,89.7843,VALID,0,VALID,25.4344,VALID,360,VALID,0.673437,
2009-12-25, 03:33:05,VALID,1001.44,VALID,0,VALID,89.853,VALID,0,VALID,25.4558,VALID,19,VALID,1.5457,
2009-12-25, 03:34:05,VALID,1001.46,VALID,0,VALID,89.7385,VALID,0,VALID,25.4363,VALID,354,VALID,1.46289,
2009-12-25, 03:35:05,VALID,1001.49,VALID,0,VALID,89.7538,VALID,0,VALID,25.4363,VALID,39,VALID,1.72617,
2009-12-25, 03:36:05,VALID,1001.52,VALID,0,VALID,89.7996,VALID,0,VALID,25.4149,VALID,15,VALID,0.873828,
2009-12-25, 03:37:05,VALID,1001.5,VALID,0,VALID,89.8072,VALID,0,VALID,25.4169,VALID,21,VALID,1.76523,
2009-12-25, 03:38:05,VALID,1001.54,VALID,0,VALID,89.9064,VALID,0,VALID,25.4169,VALID,27,VALID,1.07891,
2009-12-25, 03:39:05,VALID,1001.55,VALID,0,VALID,89.9674,VALID,0,VALID,25.3955,VALID,15,VALID,1.12617,
2009-12-25, 03:40:05,VALID,1001.56,VALID,0,VALID,90.0208,VALID,0,VALID,25.3974,VALID,3,VALID,1.22852,
2009-12-25, 03:41:05,VALID,1001.53,VALID,0,VALID,89.9064,VALID,0,VALID,25.3974,VALID,85,VALID,1.62852,
2009-12-25, 03:42:05,VALID,1001.62,VALID,0,VALID,89.8682,VALID,0,VALID,25.4149,VALID,15,VALID,1.59883,
2009-12-25, 03:43:05,VALID,1001.62,VALID,0,VALID,89.7461,VALID,0,VALID,25.3955,VALID,36,VALID,1.23633,
2009-12-25, 03:44:05,VALID,1001.7,VALID,0,VALID,89.8072,VALID,0,VALID,25.3974,VALID,19,VALID,1.12539,
2009-12-25, 03:45:05,VALID,1001.7,VALID,0,VALID,89.975,VALID,0,VALID,25.3974,VALID,4,VALID,0.917188,
2009-12-25, 03:46:05,VALID,1001.72,VALID,0,VALID,90.0666,VALID,0,VALID,25.3779,VALID,62,VALID,0.895703,
2009-12-25, 03:47:05,VALID,1001.72,VALID,0,VALID,89.9598,VALID,0,VALID,25.3974,VALID,30,VALID,1.19531,